This is the latest recevied weather packets stored in our database for station/object SP9KB-14. If no packets are shown the sender has not sent any weather packets the latest 10 day(s).
| Time | Temp. | Humidity | Pressure | Rain* | Wind** | Luminosity | Snow |
|---|---|---|---|---|---|---|---|
| 1777959647 | 17.22° C | 57% | 1034.8 hPa | 0 mm | - | - | - |
| 1777959347 | 16.67° C | 58% | 1034.5 hPa | 0 mm | - | - | - |
| 1777959046 | 16.11° C | 59% | 1034.5 hPa | 0 mm | - | - | - |
| 1777958746 | 16.11° C | 58% | 1034.3 hPa | 0 mm | - | - | - |
| 1777958445 | 15.56° C | 59% | 1034.7 hPa | 0 mm | - | - | - |
| 1777958145 | 15.56° C | 60% | 1034.6 hPa | 0 mm | - | - | - |
| 1777957844 | 15.56° C | 59% | 1034.6 hPa | 0 mm | - | - | - |
| 1777957544 | 15° C | 59% | 1034.4 hPa | 0 mm | - | - | - |
| 1777957243 | 14.44° C | 61% | 1034.8 hPa | 0 mm | - | - | - |
| 1777956942 | 13.89° C | 61% | 1034.5 hPa | 0 mm | - | - | - |
| 1777956642 | 13.89° C | 62% | 1034.5 hPa | 0 mm | - | - | - |
| 1777956342 | 12.78° C | 63% | 1034.6 hPa | 0 mm | - | - | - |
| 1777956041 | 12.22° C | 66% | 1034.7 hPa | 0 mm | - | - | - |
| 1777955741 | 11.67° C | 67% | 1034.6 hPa | 0 mm | - | - | - |
| 1777955440 | 11.67° C | 67% | 1034.8 hPa | 0 mm | - | - | - |
| 1777955140 | 11.67° C | 67% | 1034.8 hPa | 0 mm | - | - | - |
| 1777954839 | 11.11° C | 68% | 1034.8 hPa | 0 mm | - | - | - |
| 1777954539 | 11.11° C | 68% | 1034.8 hPa | 0 mm | - | - | - |
| 1777954238 | 11.11° C | 68% | 1035 hPa | 0 mm | - | - | - |
| 1777953938 | 11.11° C | 68% | 1034.7 hPa | 0 mm | - | - | - |
| 1777953637 | 11.11° C | 68% | 1034.8 hPa | 0 mm | - | - | - |
| 1777953337 | 11.11° C | 68% | 1034.7 hPa | 0 mm | - | - | - |
| 1777953036 | 11.11° C | 69% | 1035 hPa | 0 mm | - | - | - |
| 1777952736 | 11.11° C | 69% | 1034.7 hPa | 0 mm | - | - | - |
| 1777952435 | 11.11° C | 68% | 1034.8 hPa | 0 mm | - | - | - |
* Rain latest hour (hover to see other rain measurements)
** Current wind speed in m/s (hover to see current wind gust speed)